Location: Sungai Igah
(2.7333°N, 114.2500°E)
Time: 22:59:15
(UTC+00:00)

ALOS - Pass Details

Date: 14 June 2021
Orbit: 683 x 684 km, 97.9° (Epoch: 25 July)

Event Time Altitude Azimuth Distance (km) Brightness Sun altitude
Rises 20:24:02 0° 3° (N) 3,030 6.0 -26.0°
Reaches altitude 10° 20:26:19 10° 358° (N) 2,117 5.1 -25.5°
Enters shadow 20:29:49 44° 324° (NW) 947 2.8 -24.7°
